User: anonymous   Login
Location: Moena
(46.3667°N, 11.6500°E)
Time: 02:52:56
(UTC+00:00)
Language:

Meteor 2-20 Rocket - Orbit

View from above orbital plane
View from above orbital plane
View from above satellite
View from above satellite

Ground track
Ground track

The orbit data is extracted from the following two-line orbital elements,

1 20827U 90086B   21136.69012219  .00000034  00000-0  17597-4 0  9995
2 20827  82.5285 242.1603 0012257 206.1821 153.8721 13.83904385547092
Epoch (UTC): 16 May 2021 16:33:46
Eccentricity: 0.0012257
inclination: 82.5285°
perigee height: 941 km
apogee height: 959 km
right ascension of ascending node: 242.1603°
argument of perigee: 206.1821°
revolutions per day: 13.83904385
mean anomaly at epoch: 153.8721°
orbit number at epoch: 54709

The dashed part of the orbit path shows where the satellite is in the earth's shadow,  

DLR